TRA19N EHAM-EKCH

Flight info

Callsign TRA19N
Flight time N/A
Altitude 37000
Route ANDIK N873 JUIST DCT DOSUR P729 TUDLO
Aircraft A321/M-SDE3FGHIRWY/LB1

Departure

Time 2026-05-04 09:03
Airport Amsterdam Airport Schiphol (EHAM)

Arrival

Time N/A
Airport Copenhagen Kastrup Airport (EKCH)
Time Latitude Longitude Altitude Speed Heading
2026-05-04 08:41 52.30705 4.77343 -1 ft 0 kts
2026-05-04 09:01 52.30651 4.77276 -1 ft 4 kts 69°
2026-05-04 09:01 52.30642 4.77405 -1 ft 17 kts 94°
2026-05-04 09:01 52.30574 4.77541 -1 ft 16 kts 154°
2026-05-04 09:01 52.30515 4.77589 -1 ft 9 kts 154°
2026-05-04 09:02 52.30459 4.77633 -1 ft 8 kts 154°
2026-05-04 09:02 52.30410 4.77620 -1 ft 8 kts 221°
2026-05-04 09:02 52.30377 4.77538 -2 ft 12 kts 239°
2026-05-04 09:02 52.30228 4.77146 -3 ft 77 kts 237°
2026-05-04 09:03 52.29829 4.76112 -4 ft 136 kts 238°
2026-05-04 09:03 52.29244 4.74628 58 ft 173 kts 235°
2026-05-04 09:03 52.28593 4.73011 601 ft 176 kts 237°
2026-05-04 09:03 52.27937 4.71283 1219 ft 180 kts 237°
2026-05-04 09:04 52.27314 4.69408 1531 ft 202 kts 252°
2026-05-04 09:04 52.27323 4.67014 1736 ft 226 kts 287°
2026-05-04 09:04 52.28219 4.64854 2286 ft 236 kts 321°
2026-05-04 09:04 52.29652 4.63647 3252 ft 233 kts 347°
2026-05-04 09:05 52.31258 4.63634 4100 ft 235 kts 15°
2026-05-04 09:05 52.32741 4.64787 4833 ft 243 kts 30°
2026-05-04 09:05 52.34267 4.66256 5241 ft 265 kts 30°
2026-05-04 09:05 52.35860 4.67798 5958 ft 273 kts 30°
2026-05-04 09:06 52.37509 4.69398 6777 ft 278 kts 30°
2026-05-04 09:07 52.50182 4.81636 11050 ft 346 kts 29°
2026-05-04 09:08 52.52240 4.83634 11733 ft 350 kts 30°
2026-05-04 09:08 52.54226 4.86094 12447 ft 357 kts 42°
2026-05-04 09:08 52.55876 4.89168 13165 ft 362 kts 51°
2026-05-04 09:08 52.57419 4.92397 13865 ft 366 kts 51°
2026-05-04 09:09 52.59000 4.95701 14484 ft 370 kts 51°
2026-05-04 09:09 52.60603 4.99040 15110 ft 374 kts 51°
2026-05-04 09:09 52.62221 5.02416 15718 ft 378 kts 51°
2026-05-04 09:09 52.63858 5.05836 16334 ft 383 kts 51°
2026-05-04 09:10 52.65513 5.09301 16953 ft 387 kts 51°
2026-05-04 09:10 52.67183 5.12811 17564 ft 392 kts 51°
2026-05-04 09:10 52.68874 5.16363 18163 ft 396 kts 51°
2026-05-04 09:10 52.70583 5.19957 18693 ft 400 kts 51°
2026-05-04 09:11 52.72310 5.23592 19204 ft 405 kts 51°
2026-05-04 09:11 52.74053 5.27266 19712 ft 409 kts 51°
2026-05-04 09:11 52.75788 5.30940 20210 ft 413 kts 51°
2026-05-04 09:11 52.77565 5.34700 20706 ft 417 kts 51°
2026-05-04 09:12 52.79361 5.38495 21198 ft 421 kts 50°
2026-05-04 09:12 52.81172 5.42329 21686 ft 425 kts 50°
2026-05-04 09:14 52.94274 5.70301 24658 ft 454 kts 51°
2026-05-04 09:14 52.95554 5.73056 24913 ft 456 kts 51°
2026-05-04 09:14 52.97494 5.77238 25304 ft 459 kts 51°
2026-05-04 09:14 52.99450 5.81458 25684 ft 463 kts 51°
2026-05-04 09:15 53.01421 5.85708 26073 ft 466 kts 51°
2026-05-04 09:15 53.04050 5.91380 26571 ft 470 kts 51°
2026-05-04 09:15 53.05400 5.94301 26821 ft 472 kts 51°
2026-05-04 09:15 53.07405 5.98645 27182 ft 476 kts 51°
2026-05-04 09:17 53.23892 6.34684 29853 ft 502 kts 52°
2026-05-04 09:18 53.26004 6.39348 30148 ft 505 kts 52°
2026-05-04 09:18 53.28128 6.44045 30449 ft 507 kts 52°
2026-05-04 09:18 53.30226 6.48683 30792 ft 507 kts 52°
2026-05-04 09:18 53.32355 6.53388 31147 ft 508 kts 52°
2026-05-04 09:19 53.34536 6.58042 31540 ft 506 kts 47°
2026-05-04 09:19 53.36990 6.62211 32058 ft 501 kts 40°
2026-05-04 09:19 53.39550 6.66142 32605 ft 497 kts 40°
2026-05-04 09:19 53.42086 6.70036 33165 ft 492 kts 40°
2026-05-04 09:20 53.44595 6.73911 33725 ft 488 kts 40°
2026-05-04 09:20 53.47074 6.77759 34234 ft 484 kts 40°
2026-05-04 09:20 53.49507 6.81534 34613 ft 482 kts 40°
2026-05-04 09:20 53.51969 6.85346 34944 ft 481 kts 40°
2026-05-04 09:21 53.54433 6.89153 35274 ft 481 kts 40°
2026-05-04 09:21 53.56889 6.92973 35557 ft 481 kts 41°
2026-05-04 09:21 53.59304 6.96869 35837 ft 482 kts 43°
2026-05-04 09:21 53.61684 7.00844 36125 ft 481 kts 43°
2026-05-04 09:22 53.64035 7.04858 36421 ft 481 kts 44°
2026-05-04 09:22 53.66373 7.08883 36699 ft 480 kts 44°
2026-05-04 09:22 53.68714 7.12906 36938 ft 481 kts 43°
2026-05-04 09:22 53.71062 7.16910 37020 ft 479 kts 43°
2026-05-04 09:23 53.75720 7.24779 37024 ft 476 kts 43°
2026-05-04 09:23 53.80395 7.32702 37020 ft 476 kts 43°
2026-05-04 09:25 53.99000 7.64586 37028 ft 477 kts 43°
2026-05-04 09:26 54.03648 7.72631 37049 ft 477 kts 44°
2026-05-04 09:26 54.08297 7.80686 37047 ft 477 kts 44°
2026-05-04 09:27 54.12944 7.88759 37046 ft 477 kts 44°